Regional Weather Roundup
Issued by NWS

Home | Current Version | Previous Version | Text Only | Print | Product List | Glossary Off
Versions: 1 2 3 4 5 6 7 8 9 10 11 12 13 14 15 16 17 18 19 20 21 22 23 24 25 26 27

000
ASUS45 KCYS 231310
RWRWY

WYOMING REGIONAL WEATHER ROUNDUP
NATIONAL WEATHER SERVICE CHEYENNE WY
700 AM MDT SAT SEP 23 2017

NOTE:  "FAIR" INDICATES FEW OR NO CLOUDS BELOW 12,000 FEET
WITH NO SIGNIFICANT WEATHER AND/OR OBSTRUCTIONS TO VISIBILITY.

WYZ001-231400-
YELLOWSTONE NATIONAL PARK

CITY           SKY/WX    TMP DP  RH WIND       PRES   REMARKS
LK YELLOWSTONE NOT AVBL
W YELLOWSTONE  NOT AVBL

$$
WYZ002>013-054>058-071-098>099-231400-
NORTHERN WYOMING

CITY           SKY/WX    TMP DP  RH WIND       PRES   REMARKS
JACKSON        FAIR      29  27  92 N5        30.02S WCI  24
CODY           CLOUDY    36  35  96 NE6       30.06R FOG     WCI  31
GREYBULL       CLOUDY    41  39  93 NW8       30.05R
WORLAND        RAIN      40  40 100 N5        30.05R FOG
SHERIDAN       LGT RAIN  42  41  96 CALM      30.05S
BUFFALO        CLOUDY    38  35  89 SE6       30.06S WCI  33
GILLETTE       CLOUDY    40  37  89 N7        30.05R
HULETT         CLOUDY    41  37  87 E5        30.07R
NEWCASTLE      CLOUDY    41  39  93 S6        30.06R

$$
WYZ014>020-022>026-101>103-231400-
CENTRAL WYOMING

CITY           SKY/WX    TMP DP  RH WIND       PRES   REMARKS
BIG PINEY      CLOUDY    29  28  96 N6        30.00S WCI  23
PINEDALE       FAIR      32  32 100 CALM      30.01S
DUBOIS         LGT SNOW  32  30  93 NW7       30.00S WCI  26
LANDER           N/A    N/A N/A N/A MISG      30.01R
RIVERTON       CLOUDY    39  38  96 NE7       30.01F WCI  34
CASPER         CLOUDY    39  38  96 NE10      30.04R FOG     WCI  32
DOUGLAS        LGT RAIN  43  40  89 E12       30.04R

$$
WYZ021-027>030-104>119-231400-
SOUTHERN WYOMING

CITY           SKY/WX    TMP DP  RH WIND       PRES   REMARKS
EVANSTON       FAIR      30  29  96 N8        29.97S WCI  22
FORT BRIDGER   FOG       34  34 100 N5        30.00F VSB 3/4 WCI  30
ROCK SPRINGS   CLOUDY    36  34  92 NE5       29.97F WCI  32
DIXON          CLOUDY    41  37  87 E5        29.99S
RAWLINS        LGT RAIN  41  38  89 NE6       29.97F
SARATOGA       CLOUDY    39  39 100 NW8       30.01R WCI  34
LARAMIE        CLOUDY    42  38  85 E10       30.00F
CHEYENNE       CLOUDY    40  35  83 N8        30.01R WCI  34
TORRINGTON     CLOUDY    43  37  79 NW7       30.01R
PINE BLUFFS    CLOUDY    41  37  87 MISG      30.01S

$$




USA.gov is the U.S. government's official web portal to all federal, state and local government web resources and services.